This is the latest recevied weather packets stored in our database for station/object EA5GK-10. If no packets are shown the sender has not sent any weather packets the latest 10 day(s).
| Time | Temp. | Humidity | Pressure | Rain* | Wind** | Luminosity | Snow |
|---|---|---|---|---|---|---|---|
| 1788351888 | 33.89° C | 43% | 1021.4 hPa | - | - | - | - |
| 1788350988 | 33.89° C | 42% | 1021.4 hPa | - | - | - | - |
| 1788350088 | 33.33° C | 42% | 1021.7 hPa | - | - | - | - |
| 1788349188 | 32.78° C | 43% | 1021.8 hPa | - | - | - | - |
| 1788348288 | 32.22° C | 43% | 1021.9 hPa | - | - | - | - |
| 1788347387 | 32.22° C | 44% | 1021.9 hPa | - | - | - | - |
| 1788346487 | 31.67° C | 44% | 1022 hPa | - | - | - | - |
| 1788345587 | 31.11° C | 44% | 1022 hPa | - | - | - | - |
| 1788344687 | 31.11° C | 46% | 1022 hPa | - | - | - | - |
| 1788343787 | 30.56° C | 46% | 1022 hPa | - | - | - | - |
| 1788342887 | 30.56° C | 46% | 1021.9 hPa | - | - | - | - |
| 1788341986 | 30.56° C | 46% | 1021.8 hPa | - | - | - | - |
| 1788341086 | 30° C | 46% | 1021.6 hPa | - | - | - | - |
| 1788340186 | 30° C | 46% | 1021.7 hPa | - | - | - | - |
| 1788339286 | 29.44° C | 47% | 1021.6 hPa | - | - | - | - |
| 1788338386 | 28.89° C | 48% | 1021.6 hPa | - | - | - | - |
| 1788337486 | 28.33° C | 49% | 1021.5 hPa | - | - | - | - |
| 1788336585 | 27.78° C | 50% | 1021.3 hPa | - | - | - | - |
| 1788335699 | 27.78° C | 50% | 1021.3 hPa | - | - | - | - |
| 1788334799 | 27.22° C | 50% | 1021.3 hPa | - | - | - | - |
| 1788333899 | 26.67° C | 51% | 1021.1 hPa | - | - | - | - |
| 1788332999 | 26.11° C | 53% | 1021.1 hPa | - | - | - | - |
| 1788332099 | 25° C | 55% | 1021 hPa | - | - | - | - |
| 1788331198 | 24.44° C | 57% | 1020.8 hPa | - | - | - | - |
| 1788330298 | 23.89° C | 58% | 1020.9 hPa | - | - | - | - |
* Rain since midnight (hover to see other rain measurements)
** Current wind speed in m/s (hover to see current wind gust speed)